Find Local Weather

World > North America > United States > Florida

Panama City, Florida Regional Weather

Lat: 30.17N, Lon: 85.67W
Wx Zone: FLZ012
Warning FLW WEATHER ALERT - (More Info. Click Here) Warning
Feedback

Panama City, FL Regional Weather

Expires:201903211400;;699936
ASUS42 KTBW 211316
RWRFL 
FLORIDA REGIONAL WEATHER ROUNDUP
NATIONAL WEATHER SERVICE TAMPA BAY RUSKIN FL
900 AM EDT THU MAR 21 2019

NOTE: "FAIR" INDICATES FEW OR NO CLOUDS BELOW 12,000 FEET WITH NO
SIGNIFICANT WEATHER AND/OR OBSTRUCTIONS TO VISIBILITY.


FLZ001>010-012>015-112-114-115-211400-
PANHANDLE FLORIDA
  
CITY           SKY/WX    TMP DP  RH WIND       PRES   REMARKS
PENSACOLA      FAIR      52  42  69 NW14      30.12R                  
PENSACOLA NAS  PTSUNNY   51  44  77 N10       30.12R                  
MILTON NAS     FAIR      50  42  74 NW6       30.11R                  
CRESTVIEW      FAIR      50  42  74 NW9       30.11R                  
DUKE FIELD     FAIR      49  43  81 NW8       30.09R                  
VALPARAISO     FAIR      51  43  73 NW13      30.08S                  
MARY ESTHER    MOSUNNY   51  46  80 N16       30.08R                  
PANAMA CITY    FAIR      52  45  77 W9        30.07R                  
TYNDALL AFB    FAIR      55  48  77 NW9       30.08R                  
APALACHICOLA   FAIR      51  47  86 CALM      30.06S                  

STATION/POSITION SKY/WX   TEMP    WIND        PRES    WAVE   SWELL
                          AIR SEA DIR/SP/G            HT/PER HT/PER
                          (F)     (DEG/KT/KT) (MB)    (FT/S) (FT/S)
30.1N   87.6W              55     330/ 19/ 23 1020.4R   3/ 4
29.2N   88.2W                     350/ 16/ 21 1021.0R   3/ 4   2/ 7
PANAMA CITY BEAC           54 63  310/  9/ 11 1018.8R
TOWER C                    60     310/  2/  3 1018.4R

$$

SKY/WX - Weather  TMP - Temperature  DP - Dew Point  RH - Relative Humidity
WIND - Wind Direction/Speed PRES - Barometric Pressure VSB - Visibility
WCI - Wind Chill Index E13G22 Wind - East Wind 13 mph/Gusts of 22 mph